FW6754 Weather Reports


time (UTC)temp
C
wind
direction
speed
KPH
gust
KPH
rain 1hr
cm
rain 24hr
cm
rain mn
cm
humidity
%
barometer
mb
20260509234411 12 0.0 0.0 0.00 0.00 0.00 10 1012.8
20260509233412 11 0.0 0.0 0.00 0.00 0.00 10 1013.0
20260509232912 11 0.0 0.0 0.00 0.00 0.00 10 1012.9
20260509232412 11 0.0 0.0 0.00 0.00 0.00 10 1013.1
20260509231912 11 0.0 0.0 0.00 0.00 0.00 10 1013.0
20260509231411 11 0.0 0.0 0.00 0.00 0.00 10 1013.0
20260509230913 11 0.0 0.0 0.00 0.00 0.00 10 1013.2
20260509230412 11 0.0 0.0 0.00 0.00 0.00 10 1013.1
20260509225912 11 0.0 0.0 0.00 0.00 0.00 10 1013.2
20260509225413 11 0.0 0.0 0.00 0.00 0.00 10 1013.2
20260509224913 11 0.0 0.0 0.00 0.00 0.00 10 1013.2
20260509224412 11 0.0 0.0 0.00 0.00 0.00 10 1013.2
20260509223912 11 0.0 0.0 0.00 0.00 0.00 10 1013.3
20260509222912 11 0.0 0.0 0.00 0.00 0.00 10 1013.3
20260509222412 11 0.0 0.0 0.00 0.00 0.00 10 1013.4
20260509221911 11 0.0 0.0 0.00 0.00 0.00 10 1013.4
20260509221413 12 0.0 0.0 0.00 0.00 0.00 10 1013.3
20260509220911 12 0.0 0.0 0.00 0.00 0.00 10 1013.3
20260509220412 12 0.0 0.0 0.00 0.00 0.00 10 1013.3
20260509215911 12 0.0 0.0 0.00 0.00 0.00 10 1013.3
20260509214411 12 0.0 0.0 0.00 0.00 0.00 10 1013.4
20260509213912 12 0.0 0.0 0.00 0.00 0.00 10 1013.4
20260509213412 12 0.0 0.0 0.00 0.00 0.00 10 1013.4
20260509212911 12 0.0 0.0 0.00 0.00 0.00 10 1013.4
20260509212411 12 0.0 0.0 0.00 0.00 0.00 10 1013.3
20260509211912 12 0.0 0.0 0.00 0.00 0.00 10 1013.3
20260509211413 12 0.0 0.0 0.00 0.00 0.00 10 1013.2
20260509210911 12 0.0 0.0 0.00 0.00 0.00 10 1013.2
20260509205913 12 0.0 0.0 0.00 0.00 0.00 10 1013.3
20260509205412 12 0.0 0.0 0.00 0.00 0.00 10 1013.3
20260509203912 13 0.0 0.0 0.00 0.00 0.00 10 1013.2
20260509203411 13 0.0 0.0 0.00 0.00 0.00 10 1013.3
20260509202411 13 0.0 0.0 0.00 0.00 0.00 10 1013.3
20260509201911 13 0.0 0.0 0.00 0.00 0.00 10 1013.2
20260509201411 13 0.0 0.0 0.00 0.00 0.00 10 1013.1
20260509200911 13 0.0 0.0 0.00 0.00 0.00 10 1013.0
20260509200412 13 0.0 0.0 0.00 0.00 0.00 10 1013.0
20260509195912 13 0.0 0.0 0.00 0.00 0.00 10 1013.0
20260509195412 14 0.0 0.0 0.00 0.00 0.00 10 1013.0
20260509194913 14 0.0 0.0 0.00 0.00 0.00 10 1012.9
20260509194412 14 0.0 0.0 0.00 0.00 0.00 10 1012.9
20260509193912 14 0.0 0.0 0.00 0.00 0.00 10 1012.7
20260509193412 15 0.0 0.0 0.00 0.00 0.00 10 1012.8
20260509192912 15 0.0 0.0 0.00 0.00 0.00 10 1012.6
20260509192411 15 0.0 0.0 0.00 0.00 0.00 10 1012.7
20260509191911 15 0.0 0.0 0.00 0.00 0.00 10 1012.6
20260509191411 16 0.0 0.0 0.00 0.00 0.00 10 1012.6
20260509190911 16 0.0 0.0 0.00 0.00 0.00 10 1012.4
20260509190412 16 0.0 0.0 0.00 0.00 0.00 10 1012.5
20260509185913 16 0.0 0.0 0.00 0.00 0.00 10 1012.2
20260509185411 17 0.0 0.0 0.00 0.00 0.00 10 1012.2
20260509184412 17 0.0 0.0 0.00 0.00 0.00 10 1012.1
20260509183912 18 0.0 0.0 0.00 0.00 0.00 10 1012.0
20260509183411 18 0.0 0.0 0.00 0.00 0.00 10 1011.9
20260509182912 18 0.0 0.0 0.00 0.00 0.00 10 1011.8
20260509182412 19 0.0 0.0 0.00 0.00 0.00 10 1011.7
20260509181912 20 0.0 0.0 0.00 0.00 0.00 10 1011.5
20260509181412 20 0.0 0.0 0.00 0.00 0.00 10 1011.5
20260509180912 21 0.0 0.0 0.00 0.00 0.00 10 1011.4
20260509180412 21 0.0 0.0 0.00 0.00 0.00 10 1011.4
20260509175911 22 0.0 0.0 0.00 0.00 0.00 10 1011.3
20260509175412 22 0.0 0.0 0.00 0.00 0.00 10 1011.3
20260509174912 23 0.0 0.0 0.00 0.00 0.00 10 1011.2
20260509174411 24 0.0 0.0 0.00 0.00 0.00 10 1011.2
20260509173911 26 0.0 0.0 0.00 0.00 0.00 10 1011.0
20260509173411 30 0.0 0.0 0.00 0.00 0.00 10 1010.7
20260509172911 32 0.0 0.0 0.00 0.00 0.00 10 1010.5
20260509172412 30 0.0 0.0 0.00 0.00 0.00 10 1010.6
20260509171911 27 0.0 0.0 0.00 0.00 0.00 10 1010.8
20260509170411 26 0.0 0.0 0.00 0.00 0.00 10 1011.1
20260509165812 25 0.0 0.0 0.00 0.00 0.00 10 1011.2
20260509165722 25 0.0 0.0 0.00 0.00 0.00 10 1011.1
20260509165011 26 0.0 0.0 0.00 0.00 0.00 10 1011.2
20260509164547 25 0.0 0.0 0.00 0.00 0.00 10 1011.4
20260509163912 26 0.0 0.0 0.00 0.00 0.00 10 1011.3
20260509163413 26 0.0 0.0 0.00 0.00 0.00 10 1011.3
20260509162911 25 0.0 0.0 0.00 0.00 0.00 10 1011.5
20260509162411 25 0.0 0.0 0.00 0.00 0.00 10 1011.6
20260509161912 25 0.0 0.0 0.00 0.00 0.00 10 1011.7
20260509161411 24 0.0 0.0 0.00 0.00 0.00 10 1011.8
20260509160911 24 0.0 0.0 0.00 0.00 0.00 10 1011.9
20260509160411 25 0.0 0.0 0.00 0.00 0.00 10 1011.9
20260509155913 25 0.0 0.0 0.00 0.00 0.00 10 1011.9
20260509155411 25 0.0 0.0 0.00 0.00 0.00 10 1011.8
20260509154411 27 0.0 0.0 0.00 0.00 0.00 10 1011.7
20260509152412 33 0.0 0.0 0.00 0.00 0.00 10 1011.3
20260509151912 35 0.0 0.0 0.00 0.00 0.00 10 1011.2
20260509151412 35 0.0 0.0 0.00 0.00 0.00 10 1011.1
20260509150911 34 0.0 0.0 0.00 0.00 0.00 10 1011.2
20260509150412 33 0.0 0.0 0.00 0.00 0.00 10 1011.4
20260509145912 36 0.0 0.0 0.00 0.00 0.00 10 1011.2
20260509145411 36 0.0 0.0 0.00 0.00 0.00 10 1011.3
20260509144412 36 0.0 0.0 0.00 0.00 0.00 10 1011.3
20260509143911 35 0.0 0.0 0.00 0.00 0.00 10 1011.4
20260509142911 35 0.0 0.0 0.00 0.00 0.00 10 1011.5
20260509142412 35 0.0 0.0 0.00 0.00 0.00 10 1011.6
20260509141912 35 0.0 0.0 0.00 0.00 0.00 10 1011.6
20260509141412 36 0.0 0.0 0.00 0.00 0.00 10 1011.5
20260509140912 35 0.0 0.0 0.00 0.00 0.00 10 1011.7
20260509140412 34 0.0 0.0 0.00 0.00 0.00 10 1011.9
20260509135912 32 0.0 0.0 0.00 0.00 0.00 10 1011.9
20260509135412 33 0.0 0.0 0.00 0.00 0.00 10 1011.9
20260509134912 31 0.0 0.0 0.00 0.00 0.00 10 1012.0
20260509134412 28 0.0 0.0 0.00 0.00 0.00 10 1012.2
20260509133912 25 0.0 0.0 0.00 0.00 0.00 10 1012.5
20260509133412 25 0.0 0.0 0.00 0.00 0.00 10 1012.6
20260509132912 25 0.0 0.0 0.00 0.00 0.00 10 1012.6
20260509132411 25 0.0 0.0 0.00 0.00 0.00 10 1012.5
20260509131912 25 0.0 0.0 0.00 0.00 0.00 10 1012.5
20260509131412 25 0.0 0.0 0.00 0.00 0.00 10 1012.6
20260509130911 25 0.0 0.0 0.00 0.00 0.00 10 1012.6
20260509130411 25 0.0 0.0 0.00 0.00 0.00 10 1012.8
20260509125911 25 0.0 0.0 0.00 0.00 0.00 10 1012.9
20260509125411 27 0.0 0.0 0.00 0.00 0.00 10 1012.6
20260509123913 25 0.0 0.0 0.00 0.00 0.00 10 1012.9
20260509123412 27 0.0 0.0 0.00 0.00 0.00 10 1012.8
20260509122911 31 0.0 0.0 0.00 0.00 0.00 10 1012.5
20260509121912 33 0.0 0.0 0.00 0.00 0.00 10 1012.4
20260509121412 32 0.0 0.0 0.00 0.00 0.00 10 1012.4
20260509120913 31 0.0 0.0 0.00 0.00 0.00 10 1012.5
20260509120412 32 0.0 0.0 0.00 0.00 0.00 10 1012.5
20260509115912 31 0.0 0.0 0.00 0.00 0.00 10 1012.6
20260509114911 24 0.0 0.0 0.00 0.00 0.00 10 1013.3
20260509114411 23 0.0 0.0 0.00 0.00 0.00 10 1013.5
20260509113912 23 0.0 0.0 0.00 0.00 0.00 10 1013.5
20260509113412 23 0.0 0.0 0.00 0.00 0.00 10 1013.4
20260509112911 23 0.0 0.0 0.00 0.00 0.00 10 1013.6
20260509112411 23 0.0 0.0 0.00 0.00 0.00 10 1013.6
20260509110911 22 0.0 0.0 0.00 0.00 0.00 10 1013.8
20260509110412 22 0.0 0.0 0.00 0.00 0.00 10 1013.8
20260509105911 22 0.0 0.0 0.00 0.00 0.00 10 1013.7
20260509104912 22 0.0 0.0 0.00 0.00 0.00 10 1014.0
20260509103911 22 0.0 0.0 0.00 0.00 0.00 10 1014.1
20260509102912 22 0.0 0.0 0.00 0.00 0.00 10 1014.0
20260509102412 22 0.0 0.0 0.00 0.00 0.00 10 1014.2
20260509101912 22 0.0 0.0 0.00 0.00 0.00 10 1014.3
20260509101412 22 0.0 0.0 0.00 0.00 0.00 10 1014.3
20260509100412 21 0.0 0.0 0.00 0.00 0.00 10 1014.4
20260509095912 21 0.0 0.0 0.00 0.00 0.00 10 1014.3
20260509095411 21 0.0 0.0 0.00 0.00 0.00 10 1014.4
20260509094411 21 0.0 0.0 0.00 0.00 0.00 10 1014.4
20260509093411 21 0.0 0.0 0.00 0.00 0.00 10 1014.5
20260509091911 20 0.0 0.0 0.00 0.00 0.00 10 1014.7
20260509090911 20 0.0 0.0 0.00 0.00 0.00 10 1014.7
20260509090412 20 0.0 0.0 0.00 0.00 0.00 10 1014.8
20260509085912 19 0.0 0.0 0.00 0.00 0.00 10 1014.9
20260509085413 19 0.0 0.0 0.00 0.00 0.00 10 1014.9
20260509084912 19 0.0 0.0 0.00 0.00 0.00 10 1014.9
20260509084411 19 0.0 0.0 0.00 0.00 0.00 10 1015.0
20260509083912 18 0.0 0.0 0.00 0.00 0.00 10 1015.0
20260509083411 18 0.0 0.0 0.00 0.00 0.00 10 1015.2
20260509082412 18 0.0 0.0 0.00 0.00 0.00 10 1015.2
20260509081912 18 0.0 0.0 0.00 0.00 0.00 10 1015.2
20260509081412 18 0.0 0.0 0.00 0.00 0.00 10 1015.2
20260509080912 18 0.0 0.0 0.00 0.00 0.00 10 1015.4
20260509080412 17 0.0 0.0 0.00 0.00 0.00 10 1015.5
20260509075912 17 0.0 0.0 0.00 0.00 0.00 10 1015.4
20260509075411 17 0.0 0.0 0.00 0.00 0.00 10 1015.6
20260509074912 17 0.0 0.0 0.00 0.00 0.00 10 1015.6
20260509074411 16 0.0 0.0 0.00 0.00 0.00 10 1015.7
20260509073912 16 0.0 0.0 0.00 0.00 0.00 10 1015.9
20260509073412 16 0.0 0.0 0.00 0.00 0.00 10 1015.9
20260509072911 16 0.0 0.0 0.00 0.00 0.00 10 1016.0
20260509072412 16 0.0 0.0 0.00 0.00 0.00 10 1016.1
20260509071912 15 0.0 0.0 0.00 0.00 0.00 10 1016.1
20260509071413 15 0.0 0.0 0.00 0.00 0.00 10 1016.1
20260509070912 15 0.0 0.0 0.00 0.00 0.00 10 1016.2
20260509070412 15 0.0 0.0 0.00 0.00 0.00 10 1016.3
20260509065912 14 0.0 0.0 0.00 0.00 0.00 10 1016.3
20260509065812 14 0.0 0.0 0.00 0.00 0.00 10 1016.3
20260509065711 14 0.0 0.0 0.00 0.00 0.00 10 1016.4
20260509065611 14 0.0 0.0 0.00 0.00 0.00 10 1016.4
20260509064612 13 0.0 0.0 0.00 0.00 0.00 10 1016.7
20260509064112 12 0.0 0.0 0.00 0.00 0.00 10 1016.7
20260509063611 12 0.0 0.0 0.00 0.00 0.00 10 1016.7
20260509063111 12 0.0 0.0 0.00 0.00 0.00 10 1016.8
20260509062121 11 0.0 0.0 0.00 0.00 0.00 10 1016.9
20260509061411 11 0.0 0.0 0.00 0.00 0.00 10 1016.9
20260509060411 10 0.0 0.0 0.00 0.00 0.00 10 1016.9
20260509055911 10 0.0 0.0 0.00 0.00 0.00 10 1016.9
20260509055411 10 0.0 0.0 0.00 0.00 0.00 10 1016.9
20260509054912 10 0.0 0.0 0.00 0.00 0.00 10 1017.0
20260509054411 9 0.0 0.0 0.00 0.00 0.00 10 1017.0
20260509053411 9 0.0 0.0 0.00 0.00 0.00 10 1016.9
20260509052411 8 0.0 0.0 0.00 0.00 0.00 10 1016.9
20260509051411 8 0.0 0.0 0.00 0.00 0.00 10 1016.8
20260509050912 8 0.0 0.0 0.00 0.00 0.00 10 1016.8
20260509050412 8 0.0 0.0 0.00 0.00 0.00 10 1016.7
20260509045912 8 0.0 0.0 0.00 0.00 0.00 10 1016.7
20260509045412 8 0.0 0.0 0.00 0.00 0.00 10 1016.6
20260509044912 8 0.0 0.0 0.00 0.00 0.00 10 1016.7
20260509044411 8 0.0 0.0 0.00 0.00 0.00 10 1016.7
20260509043912 8 0.0 0.0 0.00 0.00 0.00 10 1016.7
20260509043413 8 0.0 0.0 0.00 0.00 0.00 10 1016.5
20260509042912 8 0.0 0.0 0.00 0.00 0.00 10 1016.5
20260509042411 8 0.0 0.0 0.00 0.00 0.00 10 1016.5
20260509041912 8 0.0 0.0 0.00 0.00 0.00 10 1016.5
20260509041411 8 0.0 0.0 0.00 0.00 0.00 10 1016.4
20260509040911 8 0.0 0.0 0.00 0.00 0.00 10 1016.4
20260509040411 8 0.0 0.0 0.00 0.00 0.00 10 1016.5
20260509035912 8 0.0 0.0 0.00 0.00 0.00 10 1016.5
20260509035412 8 0.0 0.0 0.00 0.00 0.00 10 1016.4
20260509034912 8 0.0 0.0 0.00 0.00 0.00 10 1016.4
20260509034411 8 0.0 0.0 0.00 0.00 0.00 10 1016.4
20260509033913 8 0.0 0.0 0.00 0.00 0.00 10 1016.5
20260509033412 8 0.0 0.0 0.00 0.00 0.00 10 1016.4
20260509032912 8 0.0 0.0 0.00 0.00 0.00 10 1016.4
20260509032412 8 0.0 0.0 0.00 0.00 0.00 10 1016.4
20260509031912 8 0.0 0.0 0.00 0.00 0.00 10 1016.4
20260509031411 8 0.0 0.0 0.00 0.00 0.00 10 1016.5
20260509025412 8 0.0 0.0 0.00 0.00 0.00 10 1016.3
20260509024912 8 0.0 0.0 0.00 0.00 0.00 10 1016.4
20260509023911 9 0.0 0.0 0.00 0.00 0.00 10 1016.4
20260509023411 9 0.0 0.0 0.00 0.00 0.00 10 1016.4
20260509022412 10 0.0 0.0 0.00 0.00 0.00 10 1016.4
20260509021912 10 0.0 0.0 0.00 0.00 0.00 10 1016.4
20260509021412 10 0.0 0.0 0.00 0.00 0.00 10 1016.4
20260509020911 10 0.0 0.0 0.00 0.00 0.00 10 1016.5
20260509015912 10 0.0 0.0 0.00 0.00 0.00 10 1016.6
20260509015411 10 0.0 0.0 0.00 0.00 0.00 10 1016.5
20260509014411 10 0.0 0.0 0.00 0.00 0.00 10 1016.6
20260509013911 10 0.0 0.0 0.00 0.00 0.00 10 1016.5
20260509012912 9 0.0 0.0 0.00 0.00 0.00 10 1016.6
20260509012411 9 0.0 0.0 0.00 0.00 0.00 10 1016.6
20260509011911 9 0.0 0.0 0.00 0.00 0.00 10 1016.7
20260509010911 9 0.0 0.0 0.00 0.00 0.00 10 1016.8
20260509010411 9 0.0 0.0 0.00 0.00 0.00 10 1016.8
20260509005911 9 0.0 0.0 0.00 0.00 0.00 10 1016.8
20260509005411 10 0.0 0.0 0.00 0.00 0.00 10 1016.9
20260509004912 10 0.0 0.0 0.00 0.00 0.00 10 1016.9
20260509004412 10 0.0 0.0 0.00 0.00 0.00 10 1017.0
20260509003912 10 0.0 0.0 0.00 0.00 0.00 10 1017.0
20260509003412 10 0.0 0.0 0.00 0.00 0.00 10 1016.9
20260509002912 10 0.0 0.0 0.00 0.00 0.00 10 1016.9
20260509002412 10 0.0 0.0 0.00 0.00 0.00 10 1016.9
20260509001912 10 0.0 0.0 0.00 0.00 0.00 10 1016.8
20260509001412 10 0.0 0.0 0.00 0.00 0.00 10 1016.8
20260509000912 10 0.0 0.0 0.00 0.00 0.00 10 1016.8
20260509000412 10 0.0 0.0 0.00 0.00 0.00 10 1016.8
20260508235912 11 0.0 0.0 0.00 0.00 0.00 10 1016.8
20260508235412 11 0.0 0.0 0.00 0.00 0.00 10 1016.8
20260508234912 11 0.0 0.0 0.00 0.00 0.00 10 1016.8